Location: Monrovia
(34.7865°N, 86.7139°W)
Time: 21:57:03
(UTC+00:00)

Cosmos 1452 Rocket - Pass Details

Date: 14 July 2020
Orbit: 768 x 774 km, 74.1° (Epoch: 08 August)

Event Time Altitude Azimuth Distance (km) Brightness Sun altitude
Rises 04:45:30 0° 339° (NNW) 3,245 7.9 -31.4°
Reaches altitude 10° 04:47:54 10° 337° (NNW) 2,314 6.9 -31.5°
Enters shadow 04:51:41 46° 319° (NW) 1,020 4.4 -31.8°
